Location: *
(37.5724°S, 58.0067°E)
Time: 10:33:12
(UTC+00:00)

Cosmos 1980 - Pass Details

Date: 29 January 2021
Orbit: 840 x 846 km, 71.0° (Epoch: 07 March)

Event Time Altitude Azimuth Distance (km) Brightness Sun altitude
Rises 20:10:17 0° 188° (S) 3,441 7.9 -34.7°
Reaches altitude 10° 20:13:39 10° 168° (SSE) 2,498 6.9 -34.7°
Maximum altitude 20:17:24 18° 127° (SE) 2,003 5.9 -34.7°
Enters shadow 20:18:36 17° 112° (ESE) 2,056 5.8 -34.7°
